Portada
METAR-TAF:

METAR-TAF

Aeropuertos :

Council Bluffs, Iowa, Estados Unidos

latitud: 41-16N, longitud: 095-46W, altitud: 382 m

Observación

El informe se hizo hace 28 minutos, a las 08:35 UTC
Viento 10 kt del este
Temperatura 23°C
Humedad 69%
Presión 1014 hPa
Visibilidad: 16.1 km
Nubes dispersas a una altura de 7000 ft
Cielo nuboso a una altura de 8000 ft

METAR: KCBF 060835Z AUTO 10010KT 10SM SCT070 BKN080 23/17 A2995 RMK AO2

Hora: 04:03 (09:03 UTC)


TAF: falta

Observaciones y pronósticos meteorológicos de más de 4000 aeropuertos (mensajes METAR y TAF).

Los puntos amarillos y rojos representan las estaciones disponibles.

Ponga el ratón en el punto deseado para ver el nombre de la estación.

Haga clic para ver las observaciones y los pronósticos meteorológicos.

Para cambiar el mapa : haga clic en los botones verdes con una cruz de color negro para hacer un zoom, en el botón verde con un guión para alejar o en las flechas verdes para mapas adyacentes.


METAR-TAF: